Tracking 31030 objects as of 15-Jul-2025
HD Live streaming from Space Station
objects crossing your sky now

STARLINK-5960

Track STARLINK-5960 now!
10-day predictions
STARLINK-5960 is classified as:


NORAD ID: 56920
Int'l Code: 2023-083AW
Perigee: 565.3 km
Apogee: 567.1 km
Inclination: 43.0 °
Period: 95.8 minutes
Semi major axis: 6937 km
RCS: Unknown
Launch date: June 12, 2023
Source: United States (US)
Launch site: AIR FORCE EASTERN TEST RANGE (AFETR)
Your satellite tracking list
Your tracking list is empty




NASA's NSSDC Master Catalog

Two Line Element Set (TLE):
1 56920U 23083AW  25195.57724498 -.00000436  00000-0 -17226-4 0  9993
2 56920  43.0037 282.4757 0001295 272.8018  87.2676 15.02533205116001
Source of the keplerian elements: AFSPC